www.pogodaiklimat.ru
ПОГОДА в Торрингтоне
Время
и дата
01:53 22.05
02:53 22.05
03:53 22.05
04:53 22.05
05:53 22.05
06:53 22.05
07:53 22.05
08:53 22.05
09:53 22.05
10:32 22.05
10:53 22.05
11:53 22.05
12:53 22.05
13:53 22.05
14:53 22.05
15:53 22.05
16:53 22.05
17:53 22.05
18:53 22.05
19:53 22.05
20:53 22.05
21:53 22.05
22:53 22.05
23:53 22.05
00:53 23.05
01:53 23.05
02:50 23.05
02:53 23.05
03:04 23.05
03:53 23.05
04:53 23.05
05:53 23.05
06:53 23.05
07:53 23.05
08:53 23.05
09:53 23.05
10:42 23.05
10:53 23.05
11:46 23.05
11:53 23.05
12:20 23.05
12:51 23.05
12:53 23.05
13:01 23.05
13:53 23.05
14:01 23.05
14:53 23.05
15:53 23.05
Ветер
(напр.,м/с)
Видим. Явления Облачность Т
(С)
Тd
(С)
f
(%)
Тe
(С)
Тes
(С)
Комфортность P
(гПа)
Po
(гПа)
Тmin
(С)
Tmax
(С)
R
(мм)
R24
(мм)
S
(см)
СВ 2 16 км ясно -2.2 -4.4 85 -8 -8 1027.3 879.8
СВ 2 16 км ясно -2.2 -3.9 88 -8 -8 1026.6 879.2
СВ 1 16 км ясно -2.2 -3.9 88 -6 -6 1027.1 879.5
В 1 16 км ясно -2.8 -4.4 89 -8 -8 1027.3 879.5 -2.8 +1.7
В 1 16 км ясно +0.6 -1.7 85 -4 -4 1027.3 879.8
В 3 16 км ясно +4.4 -1.1 67 -1 0 1026.6 879.5
ЮВ 3 16 км ясно +7.2 -1.1 56 +3 +5 1026.5 879.2
ЮВ 3 16 км ясно +10.6 -0.6 46 +8 +10 1025.3 878.7
ЮВ 3
{5}
16 км ясно +13.3 0.0 40 +11 +16 1023.6 877.5
ЮВ 4
{5}
16 км 2/0 2250 м
[Ac]
+15.0 -2.8 29 +13 +14 876.9
Ю 5
{8}
16 км 5/0 2400 м
[Ac]
+15.6 -3.9 26 +14 +14 1022.6 876.9 -2.8 +16.1
Ю 6
{9}
16 км 5/0 2100 м
[Ac]
+15.6 -1.7 30 +13 +13 1022.5 876.6
ЮВ 3
{6}
16 км 8/0 2250 м
[Ac]
+13.9 -2.2 33 +12 +16 1022.1 875.8
ЮВ 4
{6}
16 км 8/0 2400 м
[Ac]
+15.0 -2.8 29 +13 +13 1021.0 874.9
ЮВ 4
{6}
16 км 8/0 2100 м
[Ac]
+15.6 -2.2 29 +14 +14 1020.0 874.0
Ю 4
{6}
16 км ясно +16.1 -1.7 30 +14 +15 1019.3 873.4
ЮВ 4
{6}
16 км 2/0 2400 м
[Ac]
+15.0 -0.6 34 +13 +14 1019.1 873.1 +13.3 +17.2
ЮВ 4
{6}
16 км ясно +14.4 -0.6 36 +12 +13 1018.3 872.9
ЮВ 3 16 км 2/0 2100 м
[Ac]
+12.8 +0.6 43 +10 +11 1018.4 873.4
ЮВ 3 16 км ясно +11.1 +0.6 48 +8 +8 1018.6 873.7
В 2 16 км ясно +10.0 +0.6 52 +7 +7 1018.7 874.0
В 2 16 км ясно +9.4 0.0 52 +7 +7 1018.3 874.0
ЮВ 3 16 км 10/0 2100 м
[Ac]
+10.0 0.0 50 +7 +7 1017.7 874.0 +9.4 +15.6
ЮВ 3 16 км ясно +8.9 +0.6 56 +5 +5 1016.8 873.1
ЮВ 3
{5}
16 км ясно +8.9 +3.3 68 +5 +5 1016.6 872.6
ЮВ 4
{5}
16 км 8/8 1650 м +8.3 +3.9 74 +4 +4 1016.6 872.6
ЮВ 3
{5}
16 км 10/10 660 м +8.0 +3.0 71 +4 +4 872.9
ЮВ 3 16 км 10/10 660 м +8.3 +3.3 71 +4 +4 1016.7 872.9
ЮВ 3
{5}
16 км 10/10 660 м +7.8 +3.3 73 +3 +3 872.9
В 3 16 км 10/10 930 м +7.2 +3.3 76 +3 +3 1016.6 872.6
В 3 16 км 10/10 900 м +6.7 +3.3 79 +2 +2 1016.8 872.6 +6.7 +10.0
ЮВ 3 16 км 10/5 1020 м
[Ac]
+7.2 +3.3 76 +3 +3 1016.4 872.3
ЮВ 3
{5}
8 км мгла 5/2 1350 м
[Ac]
+8.9 +2.8 66 +5 +6 1016.0 872.0
ЮВ 2 13 км 8/8 750 м +8.9 +2.8 66 +6 +6 1016.5 872.0
ЮВ 2 16 км 10/10 750 м +8.3 +2.8 68 +5 +5 1016.9 872.3
В 3 16 км 10/10 780 м +8.9 +3.3 68 +5 +5 1016.5 872.0
ЮВ 3 16 км 10/10 600 м +9.4 +3.9 68 +6 +6 872.0
ЮВ 3 16 км 10/10 720 м +8.9 +3.3 68 +5 +5 1016.5 872.0 +6.7 +10.0
ЮВ 1
{4}
16 км 8/8 660 м +10.0 +3.9 66 +8 +11 872.0
Ю 2 16 км 8/8 660 м +10.6 +4.4 65 +8 +11 1016.2 872.0
В 1 16 км 10/10 780 м +10.0 +3.3 63 +8 +8 872.0
нст 1 16 км 10/10 780 м +11.0 +4.0 62 +10 +10 872.0
В 1 16 км 10/10 780 м +10.6 +3.9 63 +9 +9 1016.2 872.0
В 1 16 км 10/10 840 м +10.6 +3.3 61 +9 +9 872.0
нст 1 16 км 8/8 870 м +12.8 +4.4 57 +12 +15 1015.8 871.7
В 2
{4}
16 км 8/8 930 м +12.2 +3.9 57 +10 +12 871.4
штиль 0 16 км 2/2 990 м +13.9 +3.9 51 +14 +31 опасность
простуды
1015.3 871.4
нст 1 16 км 5/5 1050 м +12.2 +3.3 54 +12 +17 1015.7 871.4
Местоположение метеостанции Torrington Municipal: широта 42.0645 долгота -104.1527 высота над уровнем моря 1282 м.
В архиве по умолчанию представлена погода в Торрингтоне за последние 1-2 суток. Обновление информации о фактической погоде в базе происходит ежечасно! Архивные данные за месяц целиком и за предыдущие месяцы Вы можете получить, выбрав интересующий диапазон дат из раскрывающегося списка и нажав кнопку "Ввод!".
Внимание! Архив погоды МЕТАР в базе сайта по станциям, не включенным в климатический монитор, хранится не более 60 дней. Нет смысла пытаться выбрать более раннюю дату.
*Определитесь, кто Вы:
Внимание! Время в таблицах - местное (без учета летнего времени). Для получения всемирного времени необходимо вычесть поправку, которая равна -7 ч.
Смотрите также архив погоды в соседних городах и на ближайших метеорологических станциях:
Партнеры нашего сайта:      
Пояснения к столбцам:
  • Ветер - указаны скорость ветра в м/с - средняя за 10 мин, порывы в срок и между сроками (в фигурных скобках) и направление, откуда дует ветер: С - северный,
  • СВ - северо-восточный, В - восточный, ЮВ - юго-восточный, Ю - южный, ЮЗ - юго-западный, З - западный, СЗ - северо-западный.
  • Видимость - горизонтальная дальность видимости в метрах или километрах. При видимости от 1 до 10 км при отсутствии осадков обычно наблюдается дымка, при ухудшении видимости до 1 км и менее - туман. В сухую погоду видимость может ухудшаться дымом, пылью или мглою.
  • Явления - указаны атмосферные явления, наблюдавшиеся в срок или в последний час перед сроком; фигурными скобками обозначены явления, наблюдавшиеся между сроками (за 1-3 часа до срока); квадратными скобками обозначены град или гололедные отложения с указанием их диаметра в мм.
  • Облачность - указаны через наклонную черту общая и нижняя облачность в баллах и высота нижней границы облаков в метрах; квадратными скобками обозначены формы облаков: Ci - перистые, Cs - перисто-слоистые, Cc - перисто-кучевые, Ac - высококучевые, As - высокослоистые, Sc - слоисто-кучевые, Ns - слоисто-дождевые, Cu - кучевые, Cb - кучево-дождевые. Подробнее классификацию облаков см. в Атласе облаков (PDF).
  • T - Температура воздуха - температура, измеренная на высоте 2 м над землей.
  • Td - Температура точки росы - температура, при понижении до которой содержащийся в воздухе водяной пар достигнет насыщения.
  • f - Относительная влажность воздуха - влажноcть воздуха, измеренная на высоте 2 м над землей.
  • Te - Эффективная температура - температура, которую ощущает одетый по сезону человек в тени. Характеристика душности погоды. При расчете учитывается влияние влажности воздуха и скорости ветра на теплоощущения человека.
  • Tes - Эффективная температура на солнце - температура, которую ощущает человек, с поправкой на солнечный нагрев. Характеристика знойности погоды. Зависит от высоты солнца над горизонтом, облачности и скорости ветра. Ночью, в пасмурную погоду, а также при ветре 12 м/с и более поправка равна нулю.
  • P - Атмосферное давление - приведенное к уровню моря атмосферное давление.
  • Po - Атмосферное давление - измеренное на уровне метеостанции атмосферное давление.
  • Tmin - Минимальная температура - минимум температуры воздуха на высоте 2 м над землей.
  • Tmax - Максимальная температура - максимум температуры воздуха на высоте 2 м над землей.
  • R - Количество осадков - Количество выпавших осадков за период времени, мм. При наведении курсора мыши на число - период времени, за который выпало указанное количество осадков.
  • R24 - Количество осадков - Количество выпавших осадков за 24 часа, мм.
  • S - Снежный покров - Высота снежного покрова, см. При наведении курсора мыши на число - состояние снежного покрова и степень покрытия местности в баллах.